�������l�o���
Date,Time,MP-1(��Sv/h),MP-2(��Sv/h),MP-3(��Sv/h),MP-4(��Sv/h),MP-5(��Sv/h),MP-6(��Sv/h),MP-7(��Sv/h),MP-8(��Sv/h),����,����(m/s),���J
2022/03/31,00:00,0.584,0.864,0.552,1.059,0.745,0.350,0.606,0.572,�k�k��,3.8,��
2022/03/31,00:10,0.582,0.863,0.552,1.059,0.747,0.351,0.605,0.572,�k�k��,3.4,��
2022/03/31,00:20,0.582,0.863,0.551,1.057,0.746,0.350,0.605,0.571,�k�k��,3.4,��
2022/03/31,00:30,0.582,0.863,0.552,1.055,0.744,0.351,0.605,0.573,�k,2.3,��
2022/03/31,00:40,0.583,0.862,0.552,1.057,0.746,0.349,0.606,0.573,-,CALM,��
2022/03/31,00:50,0.582,0.864,0.552,1.055,0.747,0.351,0.605,0.573,-,CALM,��
2022/03/31,01:00,0.584,0.866,0.553,1.055,0.746,0.351,0.604,0.572,��,1.1,��
2022/03/31,01:10,0.584,0.863,0.552,1.057,0.744,0.351,0.605,0.571,�쓌,2.0,��
2022/03/31,01:20,0.583,0.863,0.552,1.056,0.745,0.350,0.604,0.571,�쓌,3.3,��
2022/03/31,01:30,0.584,0.863,0.551,1.057,0.743,0.351,0.605,0.572,��쓌,3.9,��
2022/03/31,01:40,0.584,0.864,0.552,1.057,0.746,0.351,0.605,0.571,��쐼,2.3,��
2022/03/31,01:50,0.583,0.863,0.553,1.057,0.746,0.351,0.604,0.572,���k��,2.3,��
2022/03/31,02:00,0.583,0.862,0.551,1.056,0.745,0.351,0.606,0.571,���k��,2.8,��
2022/03/31,02:10,0.582,0.862,0.552,1.059,0.745,0.351,0.605,0.570,���쐼,1.2,��
2022/03/31,02:20,0.584,0.863,0.551,1.056,0.743,0.351,0.606,0.571,�쓌,1.1,��
2022/03/31,02:30,0.582,0.863,0.552,1.057,0.745,0.352,0.604,0.570,�쓌,2.3,��
2022/03/31,02:40,0.583,0.863,0.552,1.057,0.746,0.350,0.605,0.573,�쓌,2.6,��
2022/03/31,02:50,0.582,0.865,0.554,1.058,0.746,0.350,0.606,0.572,��쓌,3.7,��
2022/03/31,03:00,0.584,0.862,0.551,1.057,0.746,0.351,0.606,0.571,�쓌,3.9,��
2022/03/31,03:10,0.582,0.863,0.552,1.056,0.744,0.350,0.605,0.572,��쓌,2.8,��
2022/03/31,03:20,0.584,0.862,0.550,1.057,0.744,0.351,0.606,0.571,��,2.2,��
2022/03/31,03:30,0.581,0.862,0.551,1.056,0.744,0.350,0.604,0.570,��쐼,3.7,��
2022/03/31,03:40,0.581,0.862,0.552,1.059,0.746,0.351,0.603,0.572,��쐼,4.4,��
2022/03/31,03:50,0.583,0.865,0.553,1.056,0.747,0.351,0.605,0.573,��,5.3,��
2022/03/31,04:00,0.584,0.863,0.551,1.054,0.745,0.351,0.605,0.572,��,3.4,��
2022/03/31,04:10,0.586,0.861,0.552,1.058,0.747,0.351,0.606,0.572,��,3.6,��
2022/03/31,04:20,0.584,0.862,0.553,1.059,0.747,0.352,0.606,0.572,��쐼,3.7,��
2022/03/31,04:30,0.584,0.862,0.551,1.059,0.746,0.351,0.606,0.571,��쐼,3.2,��
2022/03/31,04:40,0.583,0.864,0.553,1.057,0.746,0.352,0.605,0.572,�쐼,2.3,��
2022/03/31,04:50,0.583,0.864,0.553,1.058,0.746,0.352,0.607,0.573,���쐼,1.4,��
2022/03/31,05:00,0.584,0.862,0.552,1.058,0.747,0.351,0.606,0.571,�k,1.5,��
2022/03/31,05:10,0.584,0.863,0.551,1.058,0.748,0.352,0.606,0.573,�k,3.3,��
2022/03/31,05:20,0.582,0.862,0.553,1.056,0.745,0.351,0.604,0.571,�k,4.6,��
2022/03/31,05:30,0.583,0.862,0.552,1.058,0.746,0.349,0.607,0.573,�k,5.3,�L
2022/03/31,05:40,0.581,0.861,0.551,1.058,0.744,0.351,0.603,0.573,�k,5.3,��
2022/03/31,05:50,0.581,0.861,0.551,1.057,0.746,0.351,0.606,0.572,�k�k��,3.8,��
2022/03/31,06:00,0.584,0.863,0.553,1.058,0.746,0.352,0.605,0.572,�k,4.3,��
2022/03/31,06:10,0.582,0.862,0.551,1.059,0.746,0.352,0.605,0.572,�k,3.3,��
2022/03/31,06:20,0.582,0.862,0.553,1.058,0.748,0.351,0.606,0.572,�k,2.0,��
2022/03/31,06:30,0.584,0.865,0.552,1.057,0.748,0.350,0.605,0.572,�k�k��,2.3,��
2022/03/31,06:40,0.585,0.864,0.552,1.055,0.745,0.351,0.604,0.570,�k,2.3,��
2022/03/31,06:50,0.583,0.864,0.551,1.057,0.745,0.351,0.606,0.572,�k,3.0,��
2022/03/31,07:00,0.583,0.864,0.552,1.056,0.744,0.351,0.606,0.571,�k,2.3,��
2022/03/31,07:10,0.584,0.863,0.552,1.058,0.747,0.351,0.605,0.571,�k�k��,2.3,��
2022/03/31,07:20,0.582,0.863,0.550,1.057,0.747,0.350,0.604,0.573,�k,3.5,��
2022/03/31,07:30,0.582,0.862,0.552,1.059,0.744,0.351,0.605,0.572,�k,3.7,��
2022/03/31,07:40,0.583,0.861,0.553,1.058,0.746,0.351,0.605,0.572,�k,4.7,��
2022/03/31,07:50,0.583,0.863,0.552,1.057,0.748,0.351,0.604,0.571,�k,4.5,��
2022/03/31,08:00,0.582,0.861,0.553,1.056,0.746,0.350,0.604,0.574,�k,4.8,��
2022/03/31,08:10,0.583,0.863,0.551,1.056,0.746,0.349,0.605,0.571,�k,6.1,��
2022/03/31,08:20,0.584,0.865,0.553,1.058,0.747,0.351,0.602,0.571,�k,7.8,��
2022/03/31,08:30,0.583,0.860,0.552,1.058,0.744,0.352,0.604,0.571,�k,6.3,��
2022/03/31,08:40,0.584,0.862,0.550,1.056,0.746,0.351,0.605,0.572,�k�k��,5.9,��
2022/03/31,08:50,0.585,0.862,0.552,1.055,0.747,0.348,0.605,0.572,�k,8.5,��
2022/03/31,09:00,0.582,0.860,0.551,1.057,0.747,0.350,0.604,0.572,�k,8.4,��
2022/03/31,09:10,0.582,0.859,0.552,1.056,0.744,0.348,0.603,0.572,�k,7.4,��
2022/03/31,09:20,0.584,0.857,0.551,1.057,0.744,0.349,0.603,0.569,�k,9.0,��
2022/03/31,09:30,0.581,0.860,0.553,1.057,0.743,0.350,0.602,0.570,�k,9.7,��
2022/03/31,09:40,0.582,0.859,0.551,1.057,0.745,0.349,0.603,0.571,�k,9.5,��
2022/03/31,09:50,0.582,0.857,0.548,1.057,0.743,0.349,0.601,0.568,�k�k��,9.0,��
2022/03/31,10:00,0.583,0.858,0.551,1.056,0.744,0.349,0.602,0.568,�k,7.7,�L
2022/03/31,10:10,0.582,0.859,0.552,1.056,0.744,0.349,0.603,0.570,�k�k��,8.2,�L
2022/03/31,10:20,0.580,0.859,0.551,1.057,0.744,0.349,0.601,0.568,�k,8.6,�L
2022/03/31,10:30,0.580,0.860,0.550,1.059,0.745,0.348,0.602,0.569,�k,8.6,�L
2022/03/31,10:40,0.582,0.858,0.549,1.056,0.746,0.348,0.603,0.570,�k,9.6,��
2022/03/31,10:50,0.582,0.860,0.551,1.056,0.746,0.347,0.603,0.570,�k,7.7,��
2022/03/31,11:00,0.581,0.861,0.550,1.059,0.746,0.348,0.601,0.569,�k,9.3,��
2022/03/31,11:10,0.582,0.859,0.550,1.057,0.745,0.349,0.602,0.569,�k,8.2,��
2022/03/31,11:20,0.582,0.861,0.550,1.056,0.747,0.349,0.602,0.571,�k,6.4,��
2022/03/31,11:30,0.582,0.861,0.553,1.059,0.745,0.348,0.602,0.572,�k,4.0,��
2022/03/31,11:40,0.582,0.861,0.552,1.059,0.745,0.349,0.601,0.570,�k,5.6,��
2022/03/31,11:50,0.581,0.864,0.551,1.058,0.742,0.349,0.602,0.571,�k�k��,4.9,��
2022/03/31,12:00,0.581,0.863,0.551,1.057,0.746,0.350,0.603,0.571,�k,4.6,�L
2022/03/31,12:10,0.583,0.862,0.551,1.057,0.745,0.349,0.603,0.571,�k�k��,4.4,�L
2022/03/31,12:20,0.581,0.863,0.550,1.058,0.746,0.349,0.601,0.572,�k,4.5,�L
2022/03/31,12:30,0.581,0.863,0.551,1.058,0.746,0.350,0.602,0.569,�k�k��,3.5,�L
2022/03/31,12:40,0.583,0.864,0.550,1.059,0.744,0.349,0.602,0.570,�k�k��,3.9,�L
2022/03/31,12:50,0.583,0.862,0.550,1.058,0.747,0.350,0.604,0.571,�k�k��,3.1,��
2022/03/31,13:00,0.582,0.864,0.551,1.058,0.747,0.350,0.603,0.571,�k��,4.6,��
2022/03/31,13:10,0.582,0.861,0.550,1.057,0.747,0.350,0.603,0.570,�k��,5.3,��
2022/03/31,13:20,0.581,0.863,0.551,1.059,0.746,0.349,0.602,0.571,�k��,6.7,��
2022/03/31,13:30,0.582,0.863,0.552,1.059,0.747,0.348,0.602,0.571,�k�k��,5.8,��
2022/03/31,13:40,0.581,0.861,0.551,1.060,0.745,0.349,0.602,0.571,�k�k��,6.3,��
2022/03/31,13:50,0.581,0.859,0.552,1.059,0.744,0.349,0.603,0.571,�k�k��,5.2,��
2022/03/31,14:00,0.580,0.861,0.551,1.055,0.742,0.349,0.603,0.570,�k�k��,5.4,��
2022/03/31,14:10,0.582,0.859,0.552,1.057,0.744,0.348,0.603,0.572,�k�k��,6.3,��
2022/03/31,14:20,0.582,0.858,0.551,1.056,0.744,0.349,0.604,0.572,�k�k��,6.3,��
2022/03/31,14:30,0.581,0.860,0.551,1.057,0.746,0.349,0.604,0.569,�k�k��,6.1,��
2022/03/31,14:40,0.583,0.859,0.550,1.059,0.743,0.349,0.604,0.571,�k�k��,6.3,��
2022/03/31,14:50,0.583,0.861,0.552,1.060,0.745,0.349,0.604,0.570,�k�k��,6.7,��
2022/03/31,15:00,0.582,0.859,0.552,1.058,0.745,0.350,0.604,0.570,�k,5.4,��
2022/03/31,15:10,0.581,0.862,0.553,1.059,0.745,0.349,0.604,0.568,�k,5.4,��
2022/03/31,15:20,0.582,0.862,0.552,1.059,0.744,0.349,0.604,0.570,�k,4.4,��
2022/03/31,15:30,0.581,0.862,0.553,1.057,0.744,0.349,0.606,0.570,�k,4.6,��
2022/03/31,15:40,0.583,0.861,0.552,1.058,0.744,0.350,0.603,0.570,�k�k��,3.3,��
2022/03/31,15:50,0.582,0.862,0.552,1.059,0.744,0.350,0.603,0.569,�k,2.5,��
2022/03/31,16:00,0.582,0.863,0.550,1.056,0.745,0.349,0.604,0.572,�k�k��,2.5,��
2022/03/31,16:10,0.581,0.862,0.550,1.057,0.744,0.348,0.604,0.572,�k�k��,3.4,��
2022/03/31,16:20,0.581,0.868,0.550,1.057,0.745,0.350,0.603,0.573,�k�k��,3.2,��
2022/03/31,16:30,0.580,0.862,0.552,1.059,0.744,0.350,0.604,0.572,�k��,2.9,��
2022/03/31,16:40,0.582,0.862,0.551,1.060,0.746,0.349,0.603,0.572,�k�k��,2.6,��
2022/03/31,16:50,0.581,0.862,0.551,1.059,0.745,0.350,0.604,0.572,�k��,2.6,��
2022/03/31,17:00,0.581,0.864,0.551,1.056,0.748,0.350,0.605,0.572,���k��,2.3,��
2022/03/31,17:10,0.580,0.862,0.549,1.059,0.745,0.349,0.605,0.573,�k�k��,1.5,��
2022/03/31,17:20,0.583,0.862,0.549,1.060,0.748,0.349,0.605,0.571,�k��,1.2,��
2022/03/31,17:30,0.580,0.864,0.552,1.058,0.745,0.348,0.606,0.573,�k��,2.2,��
2022/03/31,17:40,0.581,0.863,0.550,1.059,0.747,0.347,0.605,0.572,�k�k��,2.6,��
2022/03/31,17:50,0.580,0.864,0.551,1.059,0.747,0.348,0.605,0.572,�k�k��,3.3,��
2022/03/31,18:00,0.581,0.863,0.553,1.061,0.745,0.350,0.605,0.570,�k�k��,3.1,��
2022/03/31,18:10,0.580,0.862,0.549,1.058,0.745,0.347,0.603,0.572,�k�k��,2.6,��
2022/03/31,18:20,0.580,0.861,0.550,1.059,0.746,0.349,0.605,0.572,�k,3.3,��
2022/03/31,18:30,0.580,0.865,0.550,1.061,0.745,0.348,0.606,0.571,�k,4.8,��
2022/03/31,18:40,0.580,0.861,0.551,1.059,0.746,0.349,0.606,0.572,�k,5.8,��
2022/03/31,18:50,0.581,0.864,0.553,1.059,0.746,0.347,0.607,0.571,�k,6.3,��
2022/03/31,19:00,0.581,0.865,0.551,1.058,0.747,0.349,0.604,0.571,�k,5.2,��
2022/03/31,19:10,0.582,0.861,0.550,1.059,0.745,0.349,0.606,0.571,�k,4.8,��
2022/03/31,19:20,0.581,0.862,0.551,1.057,0.745,0.350,0.606,0.570,�k�k��,3.6,��
2022/03/31,19:30,0.582,0.862,0.550,1.059,0.745,0.348,0.606,0.570,�k��,2.9,��
2022/03/31,19:40,0.580,0.864,0.551,1.058,0.745,0.348,0.605,0.570,�k�k��,3.5,��
2022/03/31,19:50,0.578,0.864,0.551,1.058,0.745,0.349,0.607,0.572,�k�k��,3.5,��
2022/03/31,20:00,0.581,0.861,0.549,1.057,0.744,0.348,0.606,0.571,���k��,4.5,��
2022/03/31,20:10,0.580,0.863,0.548,1.059,0.747,0.350,0.607,0.571,�k��,6.6,��
2022/03/31,20:20,0.581,0.861,0.550,1.056,0.745,0.348,0.606,0.571,�k�k��,5.9,��
2022/03/31,20:30,0.580,0.863,0.551,1.057,0.745,0.350,0.604,0.572,�k��,4.6,��
2022/03/31,20:40,0.581,0.864,0.549,1.058,0.746,0.348,0.605,0.571,�k�k��,4.3,��
2022/03/31,20:50,0.581,0.863,0.550,1.060,0.745,0.349,0.604,0.570,�k�k��,5.4,��
2022/03/31,21:00,0.580,0.863,0.550,1.057,0.746,0.349,0.607,0.570,�k��,4.5,��
2022/03/31,21:10,0.581,0.863,0.548,1.057,0.746,0.349,0.606,0.570,�k��,5.4,��
2022/03/31,21:20,0.578,0.864,0.550,1.056,0.746,0.349,0.604,0.571,�k��,6.3,��
2022/03/31,21:30,0.581,0.864,0.550,1.058,0.747,0.348,0.605,0.570,�k��,6.1,��
2022/03/31,21:40,0.579,0.863,0.551,1.060,0.746,0.349,0.605,0.572,�k�k��,6.0,�L
2022/03/31,21:50,0.581,0.863,0.550,1.060,0.746,0.348,0.604,0.570,�k�k��,5.8,�L
2022/03/31,22:00,0.579,0.863,0.550,1.059,0.746,0.348,0.604,0.571,�k��,6.8,�L
2022/03/31,22:10,0.579,0.862,0.550,1.059,0.747,0.349,0.605,0.570,�k,5.3,�L
2022/03/31,22:20,0.581,0.865,0.551,1.056,0.745,0.349,0.604,0.572,��쓌,8.4,��
2022/03/31,22:30,0.579,0.862,0.550,1.058,0.746,0.349,0.606,0.570,�k,7.2,��
2022/03/31,22:40,0.581,0.864,0.550,1.057,0.747,0.348,0.606,0.571,�k,9.6,�L
2022/03/31,22:50,0.580,0.864,0.550,1.057,0.746,0.349,0.606,0.573,�k,9.5,�L
2022/03/31,23:00,0.581,0.863,0.551,1.058,0.746,0.348,0.606,0.571,�k,8.3,�L
2022/03/31,23:10,0.582,0.862,0.550,1.057,0.745,0.349,0.608,0.572,�k,6.1,�L
2022/03/31,23:20,0.582,0.866,0.550,1.057,0.748,0.349,0.605,0.571,�k,5.9,�L
2022/03/31,23:30,0.581,0.864,0.552,1.059,0.745,0.349,0.604,0.570,�k,6.9,�L
2022/03/31,23:40,0.581,0.863,0.552,1.062,0.746,0.349,0.605,0.572,�k,7.6,�L
2022/03/31,23:50,0.580,0.863,0.551,1.061,0.747,0.350,0.605,0.571,�k,6.2,�L
